Regional Weather Roundup
Issued by NWS Kansas City/Pleasant Hill, MO

Home | Current Version | Previous Version | Text Only | Print | Product List | Glossary On
Versions: 1 2 3 4 5 6 7 8 9 10 11 12 13 14 15 16 17 18 19 20 21 22 23 24 25 26 27 28 29 30 31 32 33 34 35 36 37 38 39 40 41 42 43 44 45 46 47 48 49 50
000
ASUS43 KEAX 240010
RWREAX

WEATHER ROUNDUP FOR EASTERN KANSAS AND NORTHWEST MISSOURI
NATIONAL WEATHER SERVICE KANSAS CITY/PLEASANT HILL MO
600 PM CST MON JAN 23 2017

KSZ040-057-103>105-MOZ028-029-037-043-240100-
...KANSAS CITY METROPOLITAN AREA...

CITY           SKY/WX    TMP DP  RH WIND       PRES   REMARKS
K.C. INTL      PTCLDY    37  30  75 E7        29.82S WCI  32
K.C. DOWNTOWN  CLEAR     38  31  76 E7        29.83S WCI  33
6HR MIN TEMP:  36; 6HR MAX TEMP:  44;

LEES SUMMIT    CLEAR     39  32  76 E6        29.84R WCI  35
6HR MIN TEMP:  35; 6HR MAX TEMP:  43;

OLATHE - IXD   CLEAR     38  33  82 E6        29.82F WCI  33
6HR MIN TEMP:  33; 6HR MAX TEMP:  43;

OLATHE - OJC   CLEAR     38  33  82 E6        29.82S WCI  33
6HR MIN TEMP:  33; 6HR MAX TEMP:  43;

LAWRENCE       CLEAR     37  32  82 NE7       29.82F WCI  32

$$

MOZ001>008-011>017-020>025-030>033-038>040-044>046-053-054-240100-
...NORTHERN AND CENTRAL MISSOURI...

CITY           SKY/WX    TMP DP  RH WIND       PRES   REMARKS
ST. JOSEPH     CLEAR     36  31  82 E8        29.84R WCI  30
6HR MIN TEMP:  34; 6HR MAX TEMP:  42;

MOSBY          CLEAR     37  32  81 CALM      29.85S
WARRENSBURG    CLOUDY    37  32  81 CALM      29.85S
WHITEMAN AFB   CLOUDY    37  37 100 CALM      29.84S
6HR MIN TEMP:  35; 6HR MAX TEMP:  42;

CLINTON        CLEAR     37  34  87 CALM      29.86S
SEDALIA        CLEAR     36  31  82 E3        29.87S
6HR MIN TEMP:  36; 6HR MAX TEMP:  41;

WARSAW         NOT AVBL
CHILLICOTHE      N/A     35  30  82 CALM      29.88S
6HR MIN TEMP:  35; 6HR MAX TEMP:  37;

KIRKSVILLE     CLOUDY    33  30  88 CALM      29.86S
6HR MIN TEMP:  32; 6HR MAX TEMP:  34;


$$

MOZ041-047>049-056>058-063>065-088>090-097-240100-
...EASTERN AND SOUTHERN MISSOURI...

CITY           SKY/WX    TMP DP  RH WIND       PRES   REMARKS
ST. LOUIS INTL CLOUDY    42  34  73 N3        29.85S
6HR MIN TEMP:  42; 6HR MAX TEMP:  44;

SPIRIT OF STL  CLOUDY    42  34  73 NW6       29.85S
COLUMBIA       CLOUDY    36  31  82 NW3       29.86S
JEFFERSON CITY CLOUDY    38  32  79 W7        29.87F WCI  33
ROLLA          PTCLDY    38  32  79 NW5       29.82F WCI  34
OSAGE BEACH    CLEAR     38  35  89 CALM      29.86F
SPRINGFIELD    CLEAR     44  30  57 NE3       29.83S
BRANSON        CLEAR     41  36  81 CALM      29.84S
JOPLIN         CLEAR     47  32  56 VRB5      29.82S
WEST PLAINS    CLEAR     44  32  62 N3        29.84R

$$

IAZ060-094-KSZ022-034>040-054-083-096-NEZ052-066-093-240100-
...KANSAS...SOUTHEAST NEBRASKA AND IOWA...

CITY           SKY/WX    TMP DP  RH WIND       PRES   REMARKS
TOPEKA         CLEAR     37  32  82 E9        29.80F WCI  30
6HR MIN TEMP:  33; 6HR MAX TEMP:  43;

MANHATTAN      CLEAR     42  35  76 E8        29.74S
EMPORIA        CLEAR     46  33  60 SE12      29.75S
CHANUTE        CLEAR     45  33  63 SE7       29.78F
WICHITA        PTCLDY    49  33  54 SE10      29.71F
OMAHA          CLOUDY    34  27  75 SE10      29.82R WCI  26
LINCOLN        MOCLDY    35  31  85 E8        29.79R WCI  29
FALLS CITY     CLOUDY    35  31  85 E9        29.81S WCI  28
LAMONI         CLOUDY    32  28  85 CALM      29.84S
DES MOINES     CLOUDY    34  28  79 N5        29.85F WCI  30

$$




USA.gov is the U.S. government's official web portal to all federal, state and local government web resources and services.